Appleton, MN

2:40 AM CDT on September 29, 2016 (GMT -0500)
Appleton Municipal

Weather History for KAQP - July, 2012

Change the Weather History Date:

Sunday, July 29, 2012

  Actual Average Record
Temperature  
Mean Temperature 75 °F -  
Max Temperature 84 °F 79 °F 95 °F (1999)
Min Temperature 66 °F 58 °F 48 °F (2013)
Cooling Degree Days 10    
Growing Degree Days 25 (Base 50)    
Moisture  
Dew Point 65 °F    
Average Humidity 70    
Maximum Humidity 94    
Minimum Humidity 51    
Precipitation  
Precipitation 0.00 in - - ()
Sea Level Pressure  
Sea Level Pressure 29.96 in    
Wind  
Wind Speed 6 mph (SE)    
Max Wind Speed 12 mph    
Max Gust Speed 16 mph    
Visibility 10 miles    
Events Rain    
Averages and records for this station are not official NWS values.
T = Trace of Precipitation, MM = Missing Value Source: NWS Daily Summary

Daily Weather History Graph

Daily Weather History Graph

Search for Another Location

Airport or City:

Trip Planner

Search our weather history database for the weather conditions in past years. The results will help you decide how hot, cold, wet, or windy it might be!

Date:

Astronomy

Jul. 29, 2012 Rise Set
Actual Time 6:05 AM CDT 8:54 PM CDT
Civil Twilight 5:31 AM CDT 9:28 PM CDT
Nautical Twilight 4:48 AM CDT 10:11 PM CDT
Astronomical Twilight 3:57 AM CDT 11:02 PM CDT
Moon 6:04 PM CDT 2:17 AM CDT
Length of Visible Light 15h 56m
Length of Day
14h 48m
Waxing Gibbous, 85% of the Moon is Illuminated
Jul 29
Waxing Gibbous
Aug 1
Full
Aug 9
Last Quarter
Aug 17
New
Aug 24
First Quarter

Hourly Weather History & Observations

Time (CDT) Temp. Heat Index Dew Point Humidity Pressure Visibility Wind Dir Wind Speed Gust Speed Precip Events Conditions
12:14 AM 73.4 °F - 64.4 °F 73% 30.00 in 10.0 mi SE 4.6 mph - N/A   Overcast
12:34 AM 73.4 °F - 66.2 °F 78% 30.00 in 10.0 mi SE 4.6 mph - N/A   Overcast
12:54 AM 71.6 °F - 66.2 °F 83% 30.00 in 10.0 mi East 4.6 mph - N/A   Overcast
1:13 AM 71.6 °F - 66.2 °F 83% 29.99 in 10.0 mi ESE 4.6 mph - N/A   Mostly Cloudy
1:34 AM 71.6 °F - 66.2 °F 83% 29.98 in 10.0 mi ESE 3.5 mph - N/A   Mostly Cloudy
1:53 AM 71.6 °F - 66.2 °F 83% 29.98 in 10.0 mi Calm Calm - N/A   Overcast
2:13 AM 69.8 °F - 66.2 °F 88% 29.98 in 10.0 mi East 3.5 mph - N/A   Overcast
2:34 AM 69.8 °F - 66.2 °F 88% 29.98 in 10.0 mi East 3.5 mph - N/A   Overcast
2:54 AM 69.8 °F - 66.2 °F 88% 29.98 in 10.0 mi East 4.6 mph - N/A Rain Light Rain
3:13 AM 69.8 °F - 66.2 °F 88% 29.97 in 10.0 mi East 5.8 mph - N/A   Overcast
3:34 AM 69.8 °F - 66.2 °F 88% 29.96 in 10.0 mi ESE 9.2 mph - N/A   Mostly Cloudy
3:54 AM 69.8 °F - 66.2 °F 88% 29.96 in 10.0 mi ESE 8.1 mph - N/A   Mostly Cloudy
4:14 AM 69.8 °F - 66.2 °F 88% 29.96 in 10.0 mi SE 9.2 mph - N/A   Mostly Cloudy
4:34 AM 69.8 °F - 64.4 °F 83% 29.96 in 10.0 mi SE 6.9 mph - N/A   Mostly Cloudy
4:54 AM 69.8 °F - 64.4 °F 83% 29.96 in 10.0 mi ESE 4.6 mph - N/A   Overcast
5:14 AM 69.8 °F - 64.4 °F 83% 29.97 in 10.0 mi SE 5.8 mph - N/A   Mostly Cloudy
5:34 AM 69.8 °F - 64.4 °F 83% 29.96 in 10.0 mi SE 6.9 mph - N/A   Mostly Cloudy
5:54 AM 68.0 °F - 64.4 °F 88% 29.97 in 10.0 mi SE 6.9 mph - N/A   Scattered Clouds
6:14 AM 66.2 °F - 62.6 °F 88% 29.97 in 10.0 mi SE 6.9 mph - N/A   Clear
6:34 AM 66.2 °F - 62.6 °F 88% 29.98 in 10.0 mi SE 6.9 mph - N/A   Clear
6:54 AM 66.2 °F - 64.4 °F 94% 29.98 in 10.0 mi SE 6.9 mph - N/A   Clear
7:13 AM 68.0 °F - 64.4 °F 88% 29.98 in 10.0 mi SE 6.9 mph - N/A   Clear
7:35 AM 69.8 °F - 64.4 °F 83% 29.98 in 10.0 mi SE 5.8 mph - N/A   Clear
7:54 AM 69.8 °F - 64.4 °F 83% 29.99 in 10.0 mi SE 6.9 mph - N/A   Clear
8:14 AM 71.6 °F - 62.6 °F 73% 29.99 in 10.0 mi SE 10.4 mph - N/A   Clear
8:34 AM 71.6 °F - 64.4 °F 78% 29.99 in 10.0 mi SSE 6.9 mph - N/A   Clear
8:54 AM 73.4 °F - 64.4 °F 73% 30.00 in 10.0 mi SSE 11.5 mph - N/A   Clear
9:14 AM 73.4 °F - 64.4 °F 73% 30.00 in 10.0 mi SSE 8.1 mph - N/A   Clear
9:34 AM 73.4 °F - 62.6 °F 69% 30.00 in 7.0 mi South 9.2 mph - N/A   Clear
9:54 AM 75.2 °F - 62.6 °F 65% 30.00 in 7.0 mi SE 8.1 mph - N/A   Scattered Clouds
10:14 AM 75.2 °F - 62.6 °F 65% 30.00 in 10.0 mi South 6.9 mph - N/A   Scattered Clouds
10:34 AM 75.2 °F - 62.6 °F 65% 30.00 in 10.0 mi SE 9.2 mph - N/A   Mostly Cloudy
10:54 AM 75.2 °F - 62.6 °F 65% 30.00 in 10.0 mi SSE 5.8 mph - N/A   Mostly Cloudy
11:14 AM 75.2 °F - 62.6 °F 65% 30.00 in 10.0 mi SE 6.9 mph - N/A   Mostly Cloudy
11:34 AM 78.8 °F - 62.6 °F 57% 29.99 in 10.0 mi SSE 8.1 mph - N/A   Scattered Clouds
11:54 AM 78.8 °F - 62.6 °F 57% 29.99 in 10.0 mi SE 9.2 mph - N/A   Scattered Clouds
12:13 PM 78.8 °F - 62.6 °F 57% 29.99 in 10.0 mi SE 8.1 mph - N/A   Scattered Clouds
12:33 PM 80.6 °F 81.8 °F 62.6 °F 54% 29.99 in 5.0 mi SE 8.1 mph - N/A   Haze
12:54 PM 80.6 °F 81.8 °F 62.6 °F 54% 29.99 in 10.0 mi South 4.6 mph - N/A   Scattered Clouds
1:14 PM 80.6 °F 81.8 °F 62.6 °F 54% 29.98 in 10.0 mi South 8.1 mph - N/A   Mostly Cloudy
1:34 PM 80.6 °F 82.3 °F 64.4 °F 58% 29.98 in 10.0 mi SE 8.1 mph - N/A   Mostly Cloudy
1:53 PM 82.4 °F 83.9 °F 64.4 °F 54% 29.98 in 10.0 mi South 6.9 mph - N/A   Mostly Cloudy
2:13 PM 82.4 °F 83.9 °F 64.4 °F 54% 29.98 in 10.0 mi SE 8.1 mph - N/A   Scattered Clouds
2:34 PM 82.4 °F 83.9 °F 64.4 °F 54% 29.97 in 10.0 mi SSE 8.1 mph 16.1 mph N/A   Scattered Clouds
2:54 PM 82.4 °F 83.9 °F 64.4 °F 54% 29.97 in 10.0 mi South 10.4 mph - N/A   Clear
3:14 PM 84.2 °F 85.6 °F 64.4 °F 51% 29.96 in 7.0 mi South 3.5 mph - N/A   Clear
3:33 PM 84.2 °F 85.6 °F 64.4 °F 51% 29.96 in 10.0 mi SE 5.8 mph - N/A   Clear
3:53 PM 84.2 °F 85.6 °F 64.4 °F 51% 29.95 in 7.0 mi SSE 8.1 mph 16.1 mph N/A   Clear
4:14 PM 84.2 °F 85.6 °F 64.4 °F 51% 29.95 in 10.0 mi SSE 9.2 mph - N/A   Clear
4:34 PM 84.2 °F 85.6 °F 64.4 °F 51% 29.95 in 10.0 mi SSE 5.8 mph - N/A   Clear
4:54 PM 84.2 °F 85.6 °F 64.4 °F 51% 29.94 in 10.0 mi SE 8.1 mph - N/A   Clear
5:13 PM 84.2 °F 85.6 °F 64.4 °F 51% 29.94 in 10.0 mi SSE 8.1 mph - N/A   Clear
5:34 PM 84.2 °F 85.6 °F 64.4 °F 51% 29.94 in 10.0 mi SSE 6.9 mph - N/A   Clear
5:54 PM 84.2 °F 85.6 °F 64.4 °F 51% 29.93 in 10.0 mi South 9.2 mph - N/A   Clear
6:14 PM 84.2 °F 85.6 °F 64.4 °F 51% 29.92 in 10.0 mi South 10.4 mph - N/A   Clear
6:33 PM 84.2 °F 85.6 °F 64.4 °F 51% 29.93 in 7.0 mi South 9.2 mph - N/A   Clear
6:53 PM 82.4 °F 83.9 °F 64.4 °F 54% 29.93 in 10.0 mi SSE 9.2 mph - N/A   Clear
7:14 PM 82.4 °F 84.6 °F 66.2 °F 58% 29.92 in 10.0 mi SSE 6.9 mph - N/A   Clear
7:34 PM 80.6 °F 82.7 °F 66.2 °F 61% 29.91 in 10.0 mi SSE 6.9 mph - N/A   Clear
7:54 PM 78.8 °F - 66.2 °F 65% 29.91 in 10.0 mi SSE 8.1 mph - N/A   Clear
8:14 PM 78.8 °F - 66.2 °F 65% 29.91 in 10.0 mi SSE 8.1 mph - N/A   Clear
8:34 PM 75.2 °F - 66.2 °F 73% 29.91 in 10.0 mi SSE 6.9 mph - N/A   Clear
8:54 PM 75.2 °F - 66.2 °F 73% 29.90 in 10.0 mi SSE 8.1 mph - N/A   Clear
9:13 PM 75.2 °F - 66.2 °F 73% 29.91 in 10.0 mi South 5.8 mph - N/A   Clear
9:34 PM 75.2 °F - 66.2 °F 73% 29.92 in 10.0 mi South 8.1 mph - N/A   Clear
9:54 PM 73.4 °F - 66.2 °F 78% 29.92 in 10.0 mi SSE 8.1 mph - N/A   Clear
10:14 PM 73.4 °F - 66.2 °F 78% 29.91 in 10.0 mi SSE 9.2 mph - N/A   Clear
10:34 PM 73.4 °F - 66.2 °F 78% 29.92 in 10.0 mi SSE 5.8 mph - N/A   Clear
10:54 PM 73.4 °F - 66.2 °F 78% 29.91 in 10.0 mi South 9.2 mph - N/A   Clear
11:34 PM 71.6 °F - 66.2 °F 83% 29.90 in 10.0 mi SSE 6.9 mph - N/A   Clear
11:54 PM 71.6 °F - 66.2 °F 83% 29.90 in 10.0 mi South 9.2 mph - N/A   Clear